This is the latest recevied weather packets stored in our database for station/object KI5RAB. If no packets are shown the sender has not sent any weather packets the latest 10 day(s).
| Time | Temp. | Humidity | Pressure | Rain* | Wind** | Luminosity | Snow |
|---|---|---|---|---|---|---|---|
| 1777603280 | 21.67° C | 81% | 1014.4 hPa | 0 mm | - | 0 W/m² | - |
| 1777602975 | 21.67° C | 80% | 1014.5 hPa | 0 mm | - | 0 W/m² | - |
| 1777602670 | 21.67° C | 80% | 1014.1 hPa | 0 mm | - | 0 W/m² | - |
| 1777602365 | 21.67° C | 80% | 1014.1 hPa | 0 mm | - | 0 W/m² | - |
| 1777602062 | 21.67° C | 80% | 1013.6 hPa | 0 mm | - | 0 W/m² | - |
| 1777601762 | 21.67° C | 80% | 1013.2 hPa | 0 mm | - | 0 W/m² | - |
| 1777600547 | 22.22° C | 80% | 1013.6 hPa | 0 mm | - | 0 W/m² | - |
| 1777583828 | 22.78° C | 79% | 1013.1 hPa | 0 mm | - | 293 W/m² | - |
| 1777583223 | 22.78° C | 78% | 1013.3 hPa | 0 mm | - | 301 W/m² | - |
| 1777582918 | 22.78° C | 79% | 1013.3 hPa | 0 mm | - | 306 W/m² | - |
| 1777581093 | 21.67° C | 82% | 1013.4 hPa | 0 mm | - | 287 W/m² | - |
| 1777580792 | 21.67° C | 82% | 1013.8 hPa | 0 mm | - | 224 W/m² | - |
| 1777580183 | 21.67° C | 82% | 1014 hPa | 0 mm | - | 151 W/m² | - |
| 1777579881 | 21.11° C | 82% | 1014 hPa | 0 mm | - | 221 W/m² | - |
| 1777579279 | 20.56° C | 83% | 1014.1 hPa | 0 mm | - | 273 W/m² | - |
| 1777578666 | 21.11° C | 83% | 1014.2 hPa | 0 mm | - | 154 W/m² | - |
| 1777577755 | 21.11° C | 83% | 1014.4 hPa | 0 mm | - | 118 W/m² | - |
| 1777577452 | 21.11° C | 83% | 1014.5 hPa | 0 mm | - | 121 W/m² | - |
| 1777577150 | 21.11° C | 83% | 1014.3 hPa | 0 mm | - | 121 W/m² | - |
| 1777576846 | 21.11° C | 83% | 1014.4 hPa | 0 mm | - | 103 W/m² | - |
| 1777576545 | 21.11° C | 83% | 1014.4 hPa | 0 mm | - | 210 W/m² | - |
| 1777575634 | 21.67° C | 82% | 1014.5 hPa | 0 mm | - | 123 W/m² | - |
| 1777573811 | 21.67° C | 82% | 1014.4 hPa | 0 mm | - | 300 W/m² | - |
| 1777573506 | 21.67° C | 82% | 1014.3 hPa | 0 mm | - | 269 W/m² | - |
| 1777572595 | 21.67° C | 81% | 1014.6 hPa | 0 mm | - | 199 W/m² | - |
* Rain latest hour (hover to see other rain measurements)
** Current wind speed in m/s (hover to see current wind gust speed)